Location: Dalton
(42.4737°N, 73.1662°W)
Time: 05:22:17
(UTC+00:00)

Tiangong - Visible Passes

Search period start: 18 September 2024 00:00
Search period end: 28 September 2024 00:00
Orbit: 373 x 377 km, 41.5° (Epoch: 17 September)

Date Brightness Start Highest point End Pass type
(mag) Time Alt. Az. Time Alt. Az. Time Alt. Az.
18 Sep -0.6 00:09:32 10° SSW 00:11:51 20° SSE 00:11:51 20° SSE visible
19 Sep -0.7 00:42:34 10° WSW 00:44:24 29° SW 00:44:24 29° SW visible
19 Sep -1.0 23:40:03 10° SW 23:42:47 29° SSE 23:44:41 16° ESE visible
20 Sep 0.8 01:16:05 10° WSW 01:16:42 15° WSW 01:16:42 15° WSW visible
21 Sep -2.0 00:13:12 10° WSW 00:16:14 56° SSE 00:16:47 47° SE visible
22 Sep -0.9 00:46:35 10° W 00:48:40 38° WSW 00:48:40 38° WSW visible
22 Sep -2.1 23:43:25 10° WSW 23:46:30 67° S 23:48:25 21° E visible
23 Sep 1.0 01:19:57 10° W 01:20:23 13° W 01:20:23 13° W visible
24 Sep -2.3 00:16:38 10° W 00:19:44 74° S 00:19:59 67° SE visible
24 Sep -2.1 23:13:14 10° W 23:16:19 74° S 23:19:24 10° E visible
25 Sep -0.2 00:49:46 10° W 00:51:26 27° WSW 00:51:26 27° WSW visible
25 Sep -2.1 23:46:14 10° W 23:49:18 66° S 23:50:49 26° ESE visible
27 Sep -1.3 00:19:11 10° W 00:22:05 38° SSW 00:22:05 38° SSW visible
27 Sep -1.8 23:15:22 10° W 23:18:24 55° SSW 23:21:18 11° ESE visible
